STARLINK-1793 (46694 NORAD) Tracking and Keplerian Element Data

This shows tracking and keplerian element data for the satellite.

Feedback or suggestion? Click here.




ElementValue
Catalog46694
NameSTARLINK-1793
Epoch Orbit1481
Epoch Day17.91667824
Epoch Year2021
RAAN21.1279
Inclination53.0531
Eccentricity0.0002526
Argument of Perigee342.6221
Mean Anonmoly77.6136
Mean Motion15.62787844
Decay Rate0.00054289
L11 46694U 20073AA 21017.91667824 .00054289 00000-0 59394-3 0 9996
L22 46694 53.0531 21.1279 0002526 342.6221 77.6136 15.62787844 14811

Live tracking and technical data element details for STARLINK-1793 (NORAD 46694). STARLINK-1793 can be tracked NOW for your location showing map with azimuth and elevation plus other details from your city location.

Track the satellite on the map from your city or location and see movement details for azimuth, elevation, latitude, longitude, range, height, and movement on the map or in text.







IsCatalogInMostPopularTable: catalog: 46694, numindb: 29
Update: records affected: 1



GetName: 46694 STARLINK-1793

Hit Count: updated at: Tue, 19 Jan 2021 03:01:08 GMT